When you browse on this site, cookies collect data to enhance your experience and personalize the content and advertising you see.
Visit our Privacy Policy to learn more. By continuing to use the site, you agree to this use of cookies and data.
  • In United Kingdom
  • List of Countries
  • For 7 days
  • Water Temperature
  • Satellite Maps
  • Weather Map
  • Weather Widgets
  • user-avatar
    Login

    Hourly Weather Islamabad

    Today, 23 February, Saturday

    Time Temperature Precipitation Wind Pressure Humidity
    00:00 +12°C° 0 mm 2 mps 718 mmHg 61%
    01:00 +10°C° 0 mm 2 mps 718 mmHg 59%
    02:00 +10°C° 0 mm 2 mps 718 mmHg 58%
    03:00 +10°C° 0 mm 3 mps 717 mmHg 56%
    04:00 +9°C° 0 mm 3 mps 717 mmHg 55%
    05:00 +9°C° 0 mm 3 mps 716 mmHg 51%
    06:00 +10°C° 0 mm 3 mps 716 mmHg 52%
    07:00 +10°C° 0 mm 3 mps 717 mmHg 53%
    08:00 +12°C° 0 mm 2 mps 717 mmHg 54%
    09:00 +14°C° 0 mm 2 mps 717 mmHg 47%
    10:00 +16°C° 0 mm 2 mps 717 mmHg 41%
    11:00 +18°C° 0 mm 2 mps 718 mmHg 34%
    12:00 +19°C° 0 mm 2 mps 717 mmHg 33%
    13:00 +20°C° 0 mm 2 mps 717 mmHg 31%
    14:00 +20°C° 0 mm 2 mps 717 mmHg 30%
    15:00 +20°C° 0 mm 2 mps 716 mmHg 34%
    16:00 +19°C° 0 mm 2 mps 716 mmHg 39%
    17:00 +18°C° 0 mm 2 mps 715 mmHg 44%
    18:00 +17°C° 0 mm 2 mps 715 mmHg 46%
    19:00 +15°C° 0 mm 2 mps 715 mmHg 49%
    20:00 +13°C° 0 mm 1 mps 715 mmHg 51%
    21:00 +13°C° 0 mm 2 mps 715 mmHg 51%
    22:00 +12°C° 0 mm 2 mps 715 mmHg 52%
    23:00 +12°C° 0 mm 2 mps 715 mmHg 52%

    Tomorrow, 24 February, Sunday

    Time Temperature Precipitation Wind Pressure Humidity
    00:00 +12°C° 0 mm 2 mps 715 mmHg 51%
    01:00 +10°C° 0 mm 2 mps 715 mmHg 50%
    02:00 +10°C° 0 mm 2 mps 715 mmHg 49%
    03:00 +10°C° 0 mm 2 mps 715 mmHg 48%
    04:00 +9°C° 0 mm 2 mps 715 mmHg 47%
    05:00 +9°C° 0 mm 2 mps 714 mmHg 46%
    06:00 +10°C° 0 mm 2 mps 715 mmHg 47%
    07:00 +10°C° 0 mm 2 mps 715 mmHg 47%
    08:00 +12°C° 0 mm 2 mps 715 mmHg 48%
    09:00 +14°C° 0 mm 2 mps 716 mmHg 42%
    10:00 +16°C° 0 mm 2 mps 716 mmHg 36%
    11:00 +18°C° 0 mm 2 mps 716 mmHg 30%
    12:00 +19°C° 0 mm 2 mps 716 mmHg 28%
    13:00 +19°C° 0 mm 2 mps 716 mmHg 27%
    14:00 +20°C° 0 mm 2 mps 715 mmHg 25%
    15:00 +19°C° 0 mm 2 mps 715 mmHg 30%
    16:00 +19°C° 0 mm 2 mps 715 mmHg 34%
    17:00 +18°C° 0 mm 2 mps 714 mmHg 39%
    18:00 +16°C° 0 mm 2 mps 714 mmHg 41%
    19:00 +15°C° 0 mm 2 mps 715 mmHg 43%
    20:00 +13°C° 0 mm 1 mps 715 mmHg 45%
    21:00 +13°C° 0 mm 2 mps 715 mmHg 46%
    22:00 +12°C° 0 mm 2 mps 715 mmHg 46%
    23:00 +12°C° 0 mm 2 mps 715 mmHg 46%

    Day after tomorrow, 25 February, Monday

    Time Temperature Precipitation Wind Pressure Humidity
    00:00 +10°C° 0 mm 2 mps 715 mmHg 46%
    01:00 +10°C° 0 mm 2 mps 715 mmHg 46%
    02:00 +9°C° 0 mm 3 mps 715 mmHg 46%
    03:00 +9°C° 0 mm 3 mps 715 mmHg 46%
    04:00 +9°C° 0 mm 3 mps 715 mmHg 46%
    05:00 +9°C° 0 mm 3 mps 714 mmHg 46%
    06:00 +9°C° 0 mm 3 mps 715 mmHg 46%
    07:00 +10°C° 0 mm 2 mps 715 mmHg 47%
    08:00 +10°C° 0 mm 2 mps 715 mmHg 48%
    09:00 +13°C° 0 mm 2 mps 716 mmHg 42%
    10:00 +15°C° 0 mm 2 mps 716 mmHg 35%
    11:00 +18°C° 0 mm 1 mps 716 mmHg 28%
    12:00 +19°C° 0 mm 1 mps 716 mmHg 28%
    13:00 +19°C° 0 mm 1 mps 716 mmHg 27%
    14:00 +19°C° 0 mm 2 mps 715 mmHg 27%
    15:00 +18°C° 0 mm 2 mps 715 mmHg 31%
    16:00 +18°C° 0 mm 2 mps 714 mmHg 34%
    17:00 +18°C° 0 mm 1 mps 714 mmHg 38%
    18:00 +16°C° 0 mm 2 mps 714 mmHg 40%
    19:00 +14°C° 0 mm 2 mps 714 mmHg 42%
    20:00 +13°C° 0 mm 2 mps 714 mmHg 44%
    21:00 +12°C° 0 mm 2 mps 714 mmHg 45%
    22:00 +12°C° 0 mm 2 mps 715 mmHg 47%
    23:00 +10°C° 0 mm 3 mps 715 mmHg 48%

    26 February, Tuesday

    Time Temperature Precipitation Wind Pressure Humidity
    00:00 +10°C° 0 mm 3 mps 714 mmHg 48%
    01:00 +10°C° 0 mm 3 mps 714 mmHg 48%
    02:00 +9°C° 0 mm 3 mps 714 mmHg 48%
    03:00 +9°C° 0 mm 3 mps 714 mmHg 47%
    04:00 +9°C° 0 mm 3 mps 713 mmHg 47%
    05:00 +9°C° 0 mm 3 mps 713 mmHg 46%
    06:00 +9°C° 0 mm 3 mps 713 mmHg 47%
    07:00 +10°C° 0 mm 3 mps 714 mmHg 48%
    08:00 +10°C° 0 mm 2 mps 714 mmHg 49%
    09:00 +12°C° 0 mm 3 mps 714 mmHg 43%
    10:00 +14°C° 0 mm 3 mps 715 mmHg 37%
    11:00 +17°C° 0 mm 3 mps 715 mmHg 31%
    12:00 +17°C° 0 mm 4 mps 714 mmHg 31%
    13:00 +17°C° 0 mm 4 mps 714 mmHg 32%
    14:00 +18°C° 0 mm 4 mps 713 mmHg 32%
    15:00 +17°C° 0 mm 4 mps 712 mmHg 36%
    16:00 +15°C° 0 mm 4 mps 712 mmHg 40%
    17:00 +14°C° 0 mm 3 mps 711 mmHg 45%
    18:00 +13°C° 0 mm 3 mps 711 mmHg 44%
    19:00 +13°C° 0 mm 3 mps 711 mmHg 43%
    20:00 +12°C° 0 mm 3 mps 711 mmHg 43%
    21:00 +11°C° 0 mm 3 mps 711 mmHg 43%
    22:00 +11°C° 0 mm 3 mps 710 mmHg 44%
    23:00 +11°C° 0 mm 3 mps 710 mmHg 44%

    27 February, Wednesday

    Time Temperature Precipitation Wind Pressure Humidity
    00:00 +10°C° 0 mm 3 mps 710 mmHg 44%
    01:00 +10°C° 0 mm 2 mps 709 mmHg 44%
    02:00 +10°C° 0 mm 2 mps 709 mmHg 44%
    03:00 +9°C° 0 mm 2 mps 709 mmHg 45%
    04:00 +10°C° 0 mm 1 mps 709 mmHg 46%
    05:00 +9°C° 0 mm 1 mps 709 mmHg 47%
    06:00 +10°C° 0 mm 1 mps 709 mmHg 48%
    07:00 +10°C° 0 mm 1 mps 710 mmHg 48%
    08:00 +11°C° 0 mm 1 mps 710 mmHg 49%
    09:00 +12°C° 0 mm 1 mps 711 mmHg 45%
    10:00 +13°C° 0 mm 1 mps 712 mmHg 42%
    11:00 +15°C° 0 mm 1 mps 712 mmHg 38%
    12:00 +16°C° 0 mm 2 mps 713 mmHg 36%
    13:00 +16°C° 0 mm 2 mps 713 mmHg 33%
    14:00 +17°C° 0 mm 2 mps 713 mmHg 30%
    15:00 +17°C° 0 mm 2 mps 713 mmHg 32%
    16:00 +18°C° 0 mm 1 mps 713 mmHg 34%
    17:00 +16°C° 0 mm 1 mps 713 mmHg 36%
    18:00 +15°C° 0 mm 1 mps 713 mmHg 37%
    19:00 +13°C° 0 mm 1 mps 713 mmHg 39%
    20:00 +11°C° 0 mm 0 mps 714 mmHg 40%
    21:00 +11°C° 0 mm 1 mps 714 mmHg 41%
    22:00 +11°C° 0 mm 1 mps 714 mmHg 43%
    23:00 +10°C° 0 mm 2 mps 715 mmHg 44%

    28 February, Thursday

    Time Temperature Precipitation Wind Pressure Humidity
    00:00 +10°C° 0 mm 2 mps 715 mmHg 48%
    01:00 +9°C° 0 mm 2 mps 714 mmHg 53%
    02:00 +9°C° 0 mm 2 mps 714 mmHg 58%
    03:00 +9°C° 0 mm 2 mps 714 mmHg 59%
    04:00 +9°C° 0 mm 2 mps 714 mmHg 60%
    05:00 +10°C° 0 mm 1 mps 713 mmHg 61%
    06:00 +10°C° 0 mm 1 mps 714 mmHg 60%
    07:00 +11°C° 0 mm 1 mps 714 mmHg 59%
    08:00 +11°C° 0 mm 1 mps 715 mmHg 57%
    09:00 +13°C° 0 mm 1 mps 715 mmHg 50%
    10:00 +14°C° 0 mm 1 mps 715 mmHg 43%
    11:00 +15°C° 0 mm 2 mps 716 mmHg 37%
    12:00 +16°C° 0 mm 2 mps 715 mmHg 35%
    13:00 +17°C° 0 mm 2 mps 715 mmHg 32%
    14:00 +17°C° 0 mm 3 mps 715 mmHg 30%
    15:00 +17°C° 0 mm 2 mps 714 mmHg 33%
    16:00 +16°C° 0 mm 2 mps 714 mmHg 37%
    17:00 +16°C° 0 mm 1 mps 714 mmHg 40%
    18:00 +15°C° 0 mm 1 mps 714 mmHg 41%
    19:00 +14°C° 0 mm 1 mps 714 mmHg 42%
    20:00 +13°C° 0 mm 2 mps 714 mmHg 44%
    21:00 +13°C° 0.1 mm 2 mps 715 mmHg 48%
    22:00 +12°C° 0.1 mm 2 mps 715 mmHg 52%
    23:00 +12°C° 0.1 mm 2 mps 715 mmHg 56%
    Show more